Date_Time,Julian_Date,Latitude,Longitude,Instrument_Depth,U,V,Speed,Direction
(yyyy-mm-dd hh:mn:ss UTC),(JD),(+ deg. North),(+ deg. East),(m),(cm/s),(cm/s),(cm/s),(deg True)
1983-07-19 23:30:00 UTC,2445535.479167,28.7317,-95.2428,0111,27.93,1.95,28.0000,86.0000
1983-07-20 00:00:00 UTC,2445535.500000,28.7317,-95.2428,0111,26.96,1.41,27.0000,87.0000
1983-07-20 00:30:00 UTC,2445535.520833,28.7317,-95.2428,0111,27.00,0.47,27.0000,89.0000
1983-07-20 01:00:00 UTC,2445535.541667,28.7317,-95.2428,0111,26.98,-0.94,27.0000,92.0000
1983-07-20 01:30:00 UTC,2445535.562500,28.7317,-95.2428,0111,28.93,-2.02,29.0000,94.0000
1983-07-20 02:00:00 UTC,2445535.583333,28.7317,-95.2428,0111,29.84,-3.14,30.0000,96.0000
1983-07-20 02:30:00 UTC,2445535.604167,28.7317,-95.2428,0111,29.89,-2.61,30.0000,95.0000
1983-07-20 03:00:00 UTC,2445535.625000,28.7317,-95.2428,0111,26.98,0.94,27.0000,88.0000
1983-07-20 03:30:00 UTC,2445535.645833,28.7317,-95.2428,0111,22.22,5.95,23.0000,75.0000
1983-07-20 04:00:00 UTC,2445535.666667,28.7317,-95.2428,0111,18.71,9.53,21.0000,63.0000
1983-07-20 04:30:00 UTC,2445535.687500,28.7317,-95.2428,0111,16.77,10.89,20.0000,57.0000
1983-07-20 05:00:00 UTC,2445535.708333,28.7317,-95.2428,0111,16.96,10.60,20.0000,58.0000
1983-07-20 05:30:00 UTC,2445535.729167,28.7317,-95.2428,0111,19.24,10.67,22.0000,61.0000
1983-07-20 06:00:00 UTC,2445535.750000,28.7317,-95.2428,0111,20.99,11.64,24.0000,61.0000
1983-07-20 06:30:00 UTC,2445535.770833,28.7317,-95.2428,0111,21.81,14.16,26.0000,57.0000
1983-07-20 07:00:00 UTC,2445535.791667,28.7317,-95.2428,0111,21.84,15.87,27.0000,54.0000
1983-07-20 07:30:00 UTC,2445535.812500,28.7317,-95.2428,0111,22.65,16.46,28.0000,54.0000
1983-07-20 08:00:00 UTC,2445535.833333,28.7317,-95.2428,0111,24.04,16.22,29.0000,56.0000
1983-07-20 08:30:00 UTC,2445535.854167,28.7317,-95.2428,0111,23.76,16.63,29.0000,55.0000
1983-07-20 09:00:00 UTC,2445535.875000,28.7317,-95.2428,0111,24.57,17.21,30.0000,55.0000
1983-07-20 09:30:00 UTC,2445535.895833,28.7317,-95.2428,0111,27.11,15.03,31.0000,61.0000
1983-07-20 10:00:00 UTC,2445535.916667,28.7317,-95.2428,0111,29.46,12.50,32.0000,67.0000
1983-07-20 10:30:00 UTC,2445535.937500,28.7317,-95.2428,0111,31.01,11.29,33.0000,70.0000
1983-07-20 11:00:00 UTC,2445535.958333,28.7317,-95.2428,0111,31.56,9.65,33.0000,73.0000
1983-07-20 11:30:00 UTC,2445535.979167,28.7317,-95.2428,0111,31.05,7.74,32.0000,76.0000
1983-07-20 12:00:00 UTC,2445536.000000,28.7317,-95.2428,0111,32.59,5.16,33.0000,81.0000
1983-07-20 12:30:00 UTC,2445536.020833,28.7317,-95.2428,0111,35.86,3.14,36.0000,85.0000
1983-07-20 13:00:00 UTC,2445536.041667,28.7317,-95.2428,0111,39.90,2.79,40.0000,86.0000
1983-07-20 13:30:00 UTC,2445536.062500,28.7317,-95.2428,0111,43.89,3.07,44.0000,86.0000
1983-07-20 14:00:00 UTC,2445536.083333,28.7317,-95.2428,0111,47.88,3.35,48.0000,86.0000
1983-07-20 14:30:00 UTC,2445536.104167,28.7317,-95.2428,0111,51.97,1.81,52.0000,88.0000
1983-07-20 15:00:00 UTC,2445536.125000,28.7317,-95.2428,0111,54.99,0.96,55.0000,89.0000
1983-07-20 15:30:00 UTC,2445536.145833,28.7317,-95.2428,0111,57.99,1.01,58.0000,89.0000
1983-07-20 16:00:00 UTC,2445536.166667,28.7317,-95.2428,0111,57.92,3.04,58.0000,87.0000
1983-07-20 16:30:00 UTC,2445536.187500,28.7317,-95.2428,0111,56.78,4.97,57.0000,85.0000
1983-07-20 17:00:00 UTC,2445536.208333,28.7317,-95.2428,0111,55.69,5.85,56.0000,84.0000
1983-07-20 17:30:00 UTC,2445536.229167,28.7317,-95.2428,0111,54.46,7.65,55.0000,82.0000
1983-07-20 18:00:00 UTC,2445536.250000,28.7317,-95.2428,0111,54.46,7.65,55.0000,82.0000
1983-07-20 18:30:00 UTC,2445536.270833,28.7317,-95.2428,0111,52.48,7.38,53.0000,82.0000
1983-07-20 19:00:00 UTC,2445536.291667,28.7317,-95.2428,0111,49.51,6.96,50.0000,82.0000
1983-07-20 19:30:00 UTC,2445536.312500,28.7317,-95.2428,0111,47.27,8.34,48.0000,80.0000
1983-07-20 20:00:00 UTC,2445536.333333,28.7317,-95.2428,0111,45.15,8.78,46.0000,79.0000
1983-07-20 20:30:00 UTC,2445536.354167,28.7317,-95.2428,0111,44.17,8.59,45.0000,79.0000
1983-07-20 21:00:00 UTC,2445536.375000,28.7317,-95.2428,0111,43.57,6.12,44.0000,82.0000
1983-07-20 21:30:00 UTC,2445536.395833,28.7317,-95.2428,0111,42.76,4.49,43.0000,84.0000
1983-07-20 22:00:00 UTC,2445536.416667,28.7317,-95.2428,0111,41.77,4.39,42.0000,84.0000
1983-07-20 22:30:00 UTC,2445536.437500,28.7317,-95.2428,0111,40.60,5.71,41.0000,82.0000
1983-07-20 23:00:00 UTC,2445536.458333,28.7317,-95.2428,0111,39.13,8.32,40.0000,78.0000
1983-07-20 23:30:00 UTC,2445536.479167,28.7317,-95.2428,0111,38.45,11.03,40.0000,74.0000
1983-07-21 00:00:00 UTC,2445536.500000,28.7317,-95.2428,0111,39.94,12.98,42.0000,72.0000
1983-07-21 00:30:00 UTC,2445536.520833,28.7317,-95.2428,0111,42.29,15.39,45.0000,70.0000
1983-07-21 01:00:00 UTC,2445536.541667,28.7317,-95.2428,0111,43.88,16.84,47.0000,69.0000
1983-07-21 01:30:00 UTC,2445536.562500,28.7317,-95.2428,0111,47.61,18.28,51.0000,69.0000
1983-07-21 02:00:00 UTC,2445536.583333,28.7317,-95.2428,0111,52.00,17.91,55.0000,71.0000
1983-07-21 02:30:00 UTC,2445536.604167,28.7317,-95.2428,0111,56.42,17.25,59.0000,73.0000
1983-07-21 03:00:00 UTC,2445536.625000,28.7317,-95.2428,0111,58.92,15.79,61.0000,75.0000
1983-07-21 03:30:00 UTC,2445536.645833,28.7317,-95.2428,0111,60.16,15.00,62.0000,76.0000
1983-07-21 04:00:00 UTC,2445536.666667,28.7317,-95.2428,0111,61.82,16.56,64.0000,75.0000
1983-07-21 04:30:00 UTC,2445536.687500,28.7317,-95.2428,0111,61.52,17.64,64.0000,74.0000
1983-07-21 05:00:00 UTC,2445536.708333,28.7317,-95.2428,0111,61.52,17.64,64.0000,74.0000
1983-07-21 05:30:00 UTC,2445536.729167,28.7317,-95.2428,0111,61.52,17.64,64.0000,74.0000
1983-07-21 06:00:00 UTC,2445536.750000,28.7317,-95.2428,0111,59.89,16.05,62.0000,75.0000
1983-07-21 06:30:00 UTC,2445536.770833,28.7317,-95.2428,0111,57.25,14.27,59.0000,76.0000
1983-07-21 07:00:00 UTC,2445536.791667,28.7317,-95.2428,0111,54.09,14.49,56.0000,75.0000
1983-07-21 07:30:00 UTC,2445536.812500,28.7317,-95.2428,0111,52.16,13.98,54.0000,75.0000
1983-07-21 08:00:00 UTC,2445536.833333,28.7317,-95.2428,0111,50.68,15.50,53.0000,73.0000
1983-07-21 08:30:00 UTC,2445536.854167,28.7317,-95.2428,0111,47.28,16.28,50.0000,71.0000
1983-07-21 09:00:00 UTC,2445536.875000,28.7317,-95.2428,0111,43.88,16.84,47.0000,69.0000
1983-07-21 09:30:00 UTC,2445536.895833,28.7317,-95.2428,0111,41.11,18.30,45.0000,66.0000
1983-07-21 10:00:00 UTC,2445536.916667,28.7317,-95.2428,0111,38.85,20.66,44.0000,62.0000
1983-07-21 10:30:00 UTC,2445536.937500,28.7317,-95.2428,0111,35.22,22.87,42.0000,57.0000
1983-07-21 11:00:00 UTC,2445536.958333,28.7317,-95.2428,0111,35.22,24.66,43.0000,55.0000
1983-07-21 11:30:00 UTC,2445536.979167,28.7317,-95.2428,0111,36.48,24.60,44.0000,56.0000
1983-07-21 12:00:00 UTC,2445537.000000,28.7317,-95.2428,0111,38.16,23.85,45.0000,58.0000
1983-07-21 12:30:00 UTC,2445537.020833,28.7317,-95.2428,0111,38.97,22.50,45.0000,60.0000
1983-07-21 13:00:00 UTC,2445537.041667,28.7317,-95.2428,0111,39.36,21.82,45.0000,61.0000
1983-07-21 13:30:00 UTC,2445537.062500,28.7317,-95.2428,0111,38.97,22.50,45.0000,60.0000
1983-07-21 14:00:00 UTC,2445537.083333,28.7317,-95.2428,0111,38.57,23.18,45.0000,59.0000
1983-07-21 14:30:00 UTC,2445537.104167,28.7317,-95.2428,0111,40.29,24.21,47.0000,59.0000
1983-07-21 15:00:00 UTC,2445537.125000,28.7317,-95.2428,0111,42.86,25.75,50.0000,59.0000
1983-07-21 15:30:00 UTC,2445537.145833,28.7317,-95.2428,0111,43.61,28.32,52.0000,57.0000
1983-07-21 16:00:00 UTC,2445537.166667,28.7317,-95.2428,0111,40.98,32.01,52.0000,52.0000
1983-07-21 16:30:00 UTC,2445537.187500,28.7317,-95.2428,0111,36.06,36.06,51.0000,45.0000
1983-07-21 17:00:00 UTC,2445537.208333,28.7317,-95.2428,0111,32.14,38.30,50.0000,40.0000
1983-07-21 17:30:00 UTC,2445537.229167,28.7317,-95.2428,0111,28.68,40.96,50.0000,35.0000
1983-07-21 18:00:00 UTC,2445537.250000,28.7317,-95.2428,0111,23.76,42.86,49.0000,29.0000
1983-07-21 18:30:00 UTC,2445537.270833,28.7317,-95.2428,0111,20.71,44.41,49.0000,25.0000
1983-07-21 19:00:00 UTC,2445537.291667,28.7317,-95.2428,0111,21.04,43.14,48.0000,26.0000
1983-07-21 19:30:00 UTC,2445537.312500,28.7317,-95.2428,0111,20.43,40.10,45.0000,27.0000
1983-07-21 20:00:00 UTC,2445537.333333,28.7317,-95.2428,0111,19.29,39.55,44.0000,26.0000
1983-07-21 20:30:00 UTC,2445537.354167,28.7317,-95.2428,0111,18.17,38.97,43.0000,25.0000
1983-07-21 21:00:00 UTC,2445537.375000,28.7317,-95.2428,0111,17.08,38.37,42.0000,24.0000
1983-07-21 21:30:00 UTC,2445537.395833,28.7317,-95.2428,0111,16.02,37.74,41.0000,23.0000
1983-07-21 22:00:00 UTC,2445537.416667,28.7317,-95.2428,0111,15.05,39.21,42.0000,21.0000
1983-07-21 22:30:00 UTC,2445537.437500,28.7317,-95.2428,0111,14.36,39.47,42.0000,20.0000
1983-07-21 23:00:00 UTC,2445537.458333,28.7317,-95.2428,0111,14.02,38.53,41.0000,20.0000
1983-07-21 23:30:00 UTC,2445537.479167,28.7317,-95.2428,0111,14.33,37.34,40.0000,21.0000
1983-07-22 00:00:00 UTC,2445537.500000,28.7317,-95.2428,0111,14.33,37.34,40.0000,21.0000
1983-07-22 00:30:00 UTC,2445537.520833,28.7317,-95.2428,0111,14.33,37.34,40.0000,21.0000
1983-07-22 01:00:00 UTC,2445537.541667,28.7317,-95.2428,0111,14.33,37.34,40.0000,21.0000
1983-07-22 01:30:00 UTC,2445537.562500,28.7317,-95.2428,0111,14.02,38.53,41.0000,20.0000
1983-07-22 02:00:00 UTC,2445537.583333,28.7317,-95.2428,0111,13.67,39.71,42.0000,19.0000
1983-07-22 02:30:00 UTC,2445537.604167,28.7317,-95.2428,0111,13.29,40.90,43.0000,18.0000
1983-07-22 03:00:00 UTC,2445537.625000,28.7317,-95.2428,0111,13.29,40.90,43.0000,18.0000
1983-07-22 03:30:00 UTC,2445537.645833,28.7317,-95.2428,0111,12.57,41.12,43.0000,17.0000
1983-07-22 04:00:00 UTC,2445537.666667,28.7317,-95.2428,0111,11.58,40.37,42.0000,16.0000
1983-07-22 04:30:00 UTC,2445537.687500,28.7317,-95.2428,0111,11.58,40.37,42.0000,16.0000
1983-07-22 05:00:00 UTC,2445537.708333,28.7317,-95.2428,0111,13.02,37.82,40.0000,19.0000
1983-07-22 05:30:00 UTC,2445537.729167,28.7317,-95.2428,0111,16.06,34.44,38.0000,25.0000
1983-07-22 06:00:00 UTC,2445537.750000,28.7317,-95.2428,0111,18.54,30.86,36.0000,31.0000
1983-07-22 06:30:00 UTC,2445537.770833,28.7317,-95.2428,0111,19.01,28.19,34.0000,34.0000
1983-07-22 07:00:00 UTC,2445537.791667,28.7317,-95.2428,0111,18.45,27.36,33.0000,34.0000
1983-07-22 07:30:00 UTC,2445537.812500,28.7317,-95.2428,0111,19.86,26.35,33.0000,37.0000
1983-07-22 08:00:00 UTC,2445537.833333,28.7317,-95.2428,0111,19.51,24.09,31.0000,39.0000
1983-07-22 08:30:00 UTC,2445537.854167,28.7317,-95.2428,0111,16.46,22.65,28.0000,36.0000
1983-07-22 09:00:00 UTC,2445537.875000,28.7317,-95.2428,0111,13.25,21.20,25.0000,32.0000
1983-07-22 09:30:00 UTC,2445537.895833,28.7317,-95.2428,0111,15.73,19.43,25.0000,39.0000
1983-07-22 10:00:00 UTC,2445537.916667,28.7317,-95.2428,0111,19.15,16.07,25.0000,50.0000
1983-07-22 10:30:00 UTC,2445537.937500,28.7317,-95.2428,0111,21.65,12.50,25.0000,60.0000
1983-07-22 11:00:00 UTC,2445537.958333,28.7317,-95.2428,0111,23.34,8.96,25.0000,69.0000
1983-07-22 11:30:00 UTC,2445537.979167,28.7317,-95.2428,0111,23.07,6.62,24.0000,74.0000
1983-07-22 12:00:00 UTC,2445538.000000,28.7317,-95.2428,0111,21.15,6.06,22.0000,74.0000
1983-07-22 12:30:00 UTC,2445538.020833,28.7317,-95.2428,0111,19.73,7.18,21.0000,70.0000
1983-07-22 13:00:00 UTC,2445538.041667,28.7317,-95.2428,0111,18.27,8.13,20.0000,66.0000
1983-07-22 13:30:00 UTC,2445538.062500,28.7317,-95.2428,0111,16.78,8.92,19.0000,62.0000
1983-07-22 14:00:00 UTC,2445538.083333,28.7317,-95.2428,0111,14.26,9.26,17.0000,57.0000
1983-07-22 14:30:00 UTC,2445538.104167,28.7317,-95.2428,0111,11.66,9.44,15.0000,51.0000
1983-07-22 15:00:00 UTC,2445538.125000,28.7317,-95.2428,0111,10.97,10.23,15.0000,47.0000
1983-07-22 15:30:00 UTC,2445538.145833,28.7317,-95.2428,0111,9.55,10.24,14.0000,43.0000
1983-07-22 16:00:00 UTC,2445538.166667,28.7317,-95.2428,0111,9.64,11.49,15.0000,40.0000
1983-07-22 16:30:00 UTC,2445538.187500,28.7317,-95.2428,0111,8.82,12.14,15.0000,36.0000
1983-07-22 17:00:00 UTC,2445538.208333,28.7317,-95.2428,0111,7.27,13.12,15.0000,29.0000
1983-07-22 17:30:00 UTC,2445538.229167,28.7317,-95.2428,0111,4.33,13.31,14.0000,18.0000
1983-07-22 18:00:00 UTC,2445538.250000,28.7317,-95.2428,0111,0.98,13.97,14.0000,4.0000
1983-07-22 18:30:00 UTC,2445538.270833,28.7317,-95.2428,0111,-1.71,13.90,14.0000,353.0000
1983-07-22 19:00:00 UTC,2445538.291667,28.7317,-95.2428,0111,-3.39,13.58,14.0000,346.0000
1983-07-22 19:30:00 UTC,2445538.312500,28.7317,-95.2428,0111,-4.88,14.18,15.0000,341.0000
1983-07-22 20:00:00 UTC,2445538.333333,28.7317,-95.2428,0111,-6.25,14.73,16.0000,337.0000
1983-07-22 20:30:00 UTC,2445538.354167,28.7317,-95.2428,0111,-7.98,15.01,17.0000,332.0000
1983-07-22 21:00:00 UTC,2445538.375000,28.7317,-95.2428,0111,-9.26,14.26,17.0000,327.0000
1983-07-22 21:30:00 UTC,2445538.395833,28.7317,-95.2428,0111,-10.70,13.21,17.0000,321.0000
1983-07-22 22:00:00 UTC,2445538.416667,28.7317,-95.2428,0111,-11.81,12.23,17.0000,316.0000
1983-07-22 22:30:00 UTC,2445538.437500,28.7317,-95.2428,0111,-12.83,11.15,17.0000,311.0000
1983-07-22 23:00:00 UTC,2445538.458333,28.7317,-95.2428,0111,-13.21,10.70,17.0000,309.0000
1983-07-22 23:30:00 UTC,2445538.479167,28.7317,-95.2428,0111,-12.08,10.50,16.0000,311.0000
1983-07-23 00:00:00 UTC,2445538.500000,28.7317,-95.2428,0111,-12.08,10.50,16.0000,311.0000
1983-07-23 00:30:00 UTC,2445538.520833,28.7317,-95.2428,0111,-14.92,10.07,18.0000,304.0000
1983-07-23 01:00:00 UTC,2445538.541667,28.7317,-95.2428,0111,-20.49,10.44,23.0000,297.0000
1983-07-23 01:30:00 UTC,2445538.562500,28.7317,-95.2428,0111,-23.37,11.40,26.0000,296.0000
1983-07-23 02:00:00 UTC,2445538.583333,28.7317,-95.2428,0111,-24.06,12.26,27.0000,297.0000
1983-07-23 02:30:00 UTC,2445538.604167,28.7317,-95.2428,0111,-23.38,13.50,27.0000,300.0000
1983-07-23 03:00:00 UTC,2445538.625000,28.7317,-95.2428,0111,-22.64,14.71,27.0000,303.0000
1983-07-23 03:30:00 UTC,2445538.645833,28.7317,-95.2428,0111,-19.97,15.05,25.0000,307.0000
1983-07-23 04:00:00 UTC,2445538.666667,28.7317,-95.2428,0111,-12.96,13.90,19.0000,317.0000
1983-07-23 04:30:00 UTC,2445538.687500,28.7317,-95.2428,0111,-5.26,10.79,12.0000,334.0000
1983-07-23 05:00:00 UTC,2445538.708333,28.7317,-95.2428,0111,-2.48,8.65,9.0000,344.0000
1983-07-23 05:30:00 UTC,2445538.729167,28.7317,-95.2428,0111,-1.81,6.76,7.0000,345.0000
1983-07-23 06:00:00 UTC,2445538.750000,28.7317,-95.2428,0111,-0.26,4.99,5.0000,357.0000
1983-07-23 06:30:00 UTC,2445538.770833,28.7317,-95.2428,0111,1.55,4.76,5.0000,18.0000
1983-07-23 07:00:00 UTC,2445538.791667,28.7317,-95.2428,0111,1.41,2.65,3.0000,28.0000
1983-07-23 07:30:00 UTC,2445538.812500,28.7317,-95.2428,0111,0.50,0.87,1.0000,30.0000
1983-07-23 08:00:00 UTC,2445538.833333,28.7317,-95.2428,0111,0.00,0.00,0.0000,79.0000
1983-07-23 08:30:00 UTC,2445538.854167,28.7317,-95.2428,0111,0.21,-0.98,1.0000,168.0000
1983-07-23 09:00:00 UTC,2445538.875000,28.7317,-95.2428,0111,0.47,-2.96,3.0000,171.0000
1983-07-23 09:30:00 UTC,2445538.895833,28.7317,-95.2428,0111,0.00,-6.00,6.0000,180.0000
1983-07-23 10:00:00 UTC,2445538.916667,28.7317,-95.2428,0111,-2.28,-6.62,7.0000,199.0000
1983-07-23 10:30:00 UTC,2445538.937500,28.7317,-95.2428,0111,-5.90,-6.79,9.0000,221.0000
1983-07-23 11:00:00 UTC,2445538.958333,28.7317,-95.2428,0111,-8.09,-5.88,10.0000,234.0000
1983-07-23 11:30:00 UTC,2445538.979167,28.7317,-95.2428,0111,-8.29,-5.59,10.0000,236.0000
1983-07-23 12:00:00 UTC,2445539.000000,28.7317,-95.2428,0111,-7.37,-5.16,9.0000,235.0000
1983-07-23 12:30:00 UTC,2445539.020833,28.7317,-95.2428,0111,-6.89,-5.79,9.0000,230.0000
1983-07-23 13:00:00 UTC,2445539.041667,28.7317,-95.2428,0111,-7.66,-6.43,10.0000,230.0000
1983-07-23 13:30:00 UTC,2445539.062500,28.7317,-95.2428,0111,-8.29,-5.59,10.0000,236.0000
1983-07-23 14:00:00 UTC,2445539.083333,28.7317,-95.2428,0111,-8.51,-2.93,9.0000,251.0000
1983-07-23 14:30:00 UTC,2445539.104167,28.7317,-95.2428,0111,-9.98,-0.70,10.0000,266.0000
1983-07-23 15:00:00 UTC,2445539.125000,28.7317,-95.2428,0111,-10.94,1.15,11.0000,276.0000
1983-07-23 15:30:00 UTC,2445539.145833,28.7317,-95.2428,0111,-11.78,2.29,12.0000,281.0000
1983-07-23 16:00:00 UTC,2445539.166667,28.7317,-95.2428,0111,-12.29,4.23,13.0000,289.0000
1983-07-23 16:30:00 UTC,2445539.187500,28.7317,-95.2428,0111,-10.18,6.36,12.0000,302.0000
1983-07-23 17:00:00 UTC,2445539.208333,28.7317,-95.2428,0111,-8.49,8.49,12.0000,315.0000
1983-07-23 17:30:00 UTC,2445539.229167,28.7317,-95.2428,0111,-6.00,10.39,12.0000,330.0000
1983-07-23 18:00:00 UTC,2445539.250000,28.7317,-95.2428,0111,-3.15,12.61,13.0000,346.0000
1983-07-23 18:30:00 UTC,2445539.270833,28.7317,-95.2428,0111,-1.81,12.87,13.0000,352.0000
1983-07-23 19:00:00 UTC,2445539.291667,28.7317,-95.2428,0111,-2.29,11.78,12.0000,349.0000
1983-07-23 19:30:00 UTC,2445539.312500,28.7317,-95.2428,0111,-2.10,10.80,11.0000,349.0000
1983-07-23 20:00:00 UTC,2445539.333333,28.7317,-95.2428,0111,-0.77,10.97,11.0000,356.0000
1983-07-23 20:30:00 UTC,2445539.354167,28.7317,-95.2428,0111,0.77,10.97,11.0000,4.0000
1983-07-23 21:00:00 UTC,2445539.375000,28.7317,-95.2428,0111,1.72,10.86,11.0000,9.0000
1983-07-23 21:30:00 UTC,2445539.395833,28.7317,-95.2428,0111,2.02,8.77,9.0000,13.0000
1983-07-23 22:00:00 UTC,2445539.416667,28.7317,-95.2428,0111,2.87,7.47,8.0000,21.0000
1983-07-23 22:30:00 UTC,2445539.437500,28.7317,-95.2428,0111,2.63,5.39,6.0000,26.0000
1983-07-23 23:00:00 UTC,2445539.458333,28.7317,-95.2428,0111,1.95,4.60,5.0000,23.0000
1983-07-23 23:30:00 UTC,2445539.479167,28.7317,-95.2428,0111,1.50,3.71,4.0000,22.0000
1983-07-24 00:00:00 UTC,2445539.500000,28.7317,-95.2428,0111,2.24,3.32,4.0000,34.0000
1983-07-24 00:30:00 UTC,2445539.520833,28.7317,-95.2428,0111,3.35,3.72,5.0000,42.0000
1983-07-24 01:00:00 UTC,2445539.541667,28.7317,-95.2428,0111,2.57,3.06,4.0000,40.0000
1983-07-24 01:30:00 UTC,2445539.562500,28.7317,-95.2428,0111,1.27,2.72,3.0000,25.0000
1983-07-24 02:00:00 UTC,2445539.583333,28.7317,-95.2428,0111,0.87,4.92,5.0000,10.0000
1983-07-24 02:30:00 UTC,2445539.604167,28.7317,-95.2428,0111,0.73,6.96,7.0000,6.0000
1983-07-24 03:00:00 UTC,2445539.625000,28.7317,-95.2428,0111,1.66,7.83,8.0000,12.0000
1983-07-24 03:30:00 UTC,2445539.645833,28.7317,-95.2428,0111,3.13,7.36,8.0000,23.0000
1983-07-24 04:00:00 UTC,2445539.666667,28.7317,-95.2428,0111,3.61,6.00,7.0000,31.0000
1983-07-24 04:30:00 UTC,2445539.687500,28.7317,-95.2428,0111,2.35,4.41,5.0000,28.0000
1983-07-24 05:00:00 UTC,2445539.708333,28.7317,-95.2428,0111,1.87,4.64,5.0000,22.0000
1983-07-24 05:30:00 UTC,2445539.729167,28.7317,-95.2428,0111,1.95,5.67,6.0000,19.0000
1983-07-24 06:00:00 UTC,2445539.750000,28.7317,-95.2428,0111,2.16,6.66,7.0000,18.0000
1983-07-24 06:30:00 UTC,2445539.770833,28.7317,-95.2428,0111,2.34,7.65,8.0000,17.0000
1983-07-24 07:00:00 UTC,2445539.791667,28.7317,-95.2428,0111,2.07,7.73,8.0000,15.0000
1983-07-24 07:30:00 UTC,2445539.812500,28.7317,-95.2428,0111,1.53,7.85,8.0000,11.0000
1983-07-24 08:00:00 UTC,2445539.833333,28.7317,-95.2428,0111,0.70,7.97,8.0000,5.0000
1983-07-24 08:30:00 UTC,2445539.854167,28.7317,-95.2428,0111,-0.28,8.00,8.0000,358.0000
1983-07-24 09:00:00 UTC,2445539.875000,28.7317,-95.2428,0111,-1.11,7.92,8.0000,352.0000
1983-07-24 09:30:00 UTC,2445539.895833,28.7317,-95.2428,0111,-1.91,9.82,10.0000,349.0000
1983-07-24 10:00:00 UTC,2445539.916667,28.7317,-95.2428,0111,-2.10,10.80,11.0000,349.0000
1983-07-24 10:30:00 UTC,2445539.937500,28.7317,-95.2428,0111,-1.88,11.85,12.0000,351.0000
1983-07-24 11:00:00 UTC,2445539.958333,28.7317,-95.2428,0111,-1.58,12.90,13.0000,353.0000
1983-07-24 11:30:00 UTC,2445539.979167,28.7317,-95.2428,0111,-0.98,13.97,14.0000,356.0000
1983-07-24 12:00:00 UTC,2445540.000000,28.7317,-95.2428,0111,0.24,14.00,14.0000,1.0000
1983-07-24 12:30:00 UTC,2445540.020833,28.7317,-95.2428,0111,2.19,13.83,14.0000,9.0000
1983-07-24 13:00:00 UTC,2445540.041667,28.7317,-95.2428,0111,4.79,13.16,14.0000,20.0000
1983-07-24 13:30:00 UTC,2445540.062500,28.7317,-95.2428,0111,6.81,13.37,15.0000,27.0000
1983-07-24 14:00:00 UTC,2445540.083333,28.7317,-95.2428,0111,9.26,14.26,17.0000,33.0000
1983-07-24 14:30:00 UTC,2445540.104167,28.7317,-95.2428,0111,11.33,13.99,18.0000,39.0000
1983-07-24 15:00:00 UTC,2445540.125000,28.7317,-95.2428,0111,12.86,15.32,20.0000,40.0000
1983-07-24 15:30:00 UTC,2445540.145833,28.7317,-95.2428,0111,13.54,17.34,22.0000,38.0000
1983-07-24 16:00:00 UTC,2445540.166667,28.7317,-95.2428,0111,15.10,18.65,24.0000,39.0000
1983-07-24 16:30:00 UTC,2445540.187500,28.7317,-95.2428,0111,16.73,18.58,25.0000,42.0000
1983-07-24 17:00:00 UTC,2445540.208333,28.7317,-95.2428,0111,17.73,19.02,26.0000,43.0000
1983-07-24 17:30:00 UTC,2445540.229167,28.7317,-95.2428,0111,18.41,19.75,27.0000,43.0000
1983-07-24 18:00:00 UTC,2445540.250000,28.7317,-95.2428,0111,19.80,19.80,28.0000,45.0000
1983-07-24 18:30:00 UTC,2445540.270833,28.7317,-95.2428,0111,23.16,17.45,29.0000,53.0000
1983-07-24 19:00:00 UTC,2445540.291667,28.7317,-95.2428,0111,24.32,15.79,29.0000,57.0000
1983-07-24 19:30:00 UTC,2445540.312500,28.7317,-95.2428,0111,24.59,15.37,29.0000,58.0000
1983-07-24 20:00:00 UTC,2445540.333333,28.7317,-95.2428,0111,25.72,15.45,30.0000,59.0000
1983-07-24 20:30:00 UTC,2445540.354167,28.7317,-95.2428,0111,25.98,15.00,30.0000,60.0000
1983-07-24 21:00:00 UTC,2445540.375000,28.7317,-95.2428,0111,26.24,14.54,30.0000,61.0000
1983-07-24 21:30:00 UTC,2445540.395833,28.7317,-95.2428,0111,26.07,12.71,29.0000,64.0000
1983-07-24 22:00:00 UTC,2445540.416667,28.7317,-95.2428,0111,25.58,11.39,28.0000,66.0000
1983-07-24 22:30:00 UTC,2445540.437500,28.7317,-95.2428,0111,25.21,9.68,27.0000,69.0000
1983-07-24 23:00:00 UTC,2445540.458333,28.7317,-95.2428,0111,24.58,8.46,26.0000,71.0000
1983-07-24 23:30:00 UTC,2445540.479167,28.7317,-95.2428,0111,24.86,7.60,26.0000,73.0000
1983-07-25 00:00:00 UTC,2445540.500000,28.7317,-95.2428,0111,24.45,5.20,25.0000,78.0000
1983-07-25 00:30:00 UTC,2445540.520833,28.7317,-95.2428,0111,24.90,2.18,25.0000,85.0000
1983-07-25 01:00:00 UTC,2445540.541667,28.7317,-95.2428,0111,25.00,-0.44,25.0000,91.0000
1983-07-25 01:30:00 UTC,2445540.562500,28.7317,-95.2428,0111,24.00,-0.42,24.0000,91.0000
1983-07-25 02:00:00 UTC,2445540.583333,28.7317,-95.2428,0111,23.99,0.84,24.0000,88.0000
1983-07-25 02:30:00 UTC,2445540.604167,28.7317,-95.2428,0111,22.94,1.60,23.0000,86.0000
1983-07-25 03:00:00 UTC,2445540.625000,28.7317,-95.2428,0111,19.95,1.40,20.0000,86.0000
1983-07-25 03:30:00 UTC,2445540.645833,28.7317,-95.2428,0111,17.90,1.88,18.0000,84.0000
1983-07-25 04:00:00 UTC,2445540.666667,28.7317,-95.2428,0111,14.82,2.35,15.0000,81.0000
1983-07-25 04:30:00 UTC,2445540.687500,28.7317,-95.2428,0111,12.50,3.58,13.0000,74.0000
1983-07-25 05:00:00 UTC,2445540.708333,28.7317,-95.2428,0111,11.88,5.29,13.0000,66.0000
1983-07-25 05:30:00 UTC,2445540.729167,28.7317,-95.2428,0111,10.90,7.08,13.0000,57.0000
1983-07-25 06:00:00 UTC,2445540.750000,28.7317,-95.2428,0111,10.72,9.00,14.0000,50.0000
1983-07-25 06:30:00 UTC,2445540.770833,28.7317,-95.2428,0111,11.51,11.11,16.0000,46.0000
1983-07-25 07:00:00 UTC,2445540.791667,28.7317,-95.2428,0111,12.04,13.38,18.0000,42.0000
1983-07-25 07:30:00 UTC,2445540.812500,28.7317,-95.2428,0111,12.31,15.76,20.0000,38.0000
1983-07-25 08:00:00 UTC,2445540.833333,28.7317,-95.2428,0111,12.86,19.07,23.0000,34.0000
1983-07-25 08:30:00 UTC,2445540.854167,28.7317,-95.2428,0111,11.85,19.71,23.0000,31.0000
1983-07-25 09:00:00 UTC,2445540.875000,28.7317,-95.2428,0111,9.64,19.77,22.0000,26.0000
1983-07-25 09:30:00 UTC,2445540.895833,28.7317,-95.2428,0111,8.95,20.10,22.0000,24.0000
1983-07-25 10:00:00 UTC,2445540.916667,28.7317,-95.2428,0111,8.99,21.17,23.0000,23.0000
1983-07-25 10:30:00 UTC,2445540.937500,28.7317,-95.2428,0111,9.77,23.01,25.0000,23.0000
1983-07-25 11:00:00 UTC,2445540.958333,28.7317,-95.2428,0111,9.74,24.11,26.0000,22.0000
1983-07-25 11:30:00 UTC,2445540.979167,28.7317,-95.2428,0111,10.11,25.03,27.0000,22.0000
1983-07-25 12:00:00 UTC,2445541.000000,28.7317,-95.2428,0111,10.49,25.96,28.0000,22.0000
1983-07-25 12:30:00 UTC,2445541.020833,28.7317,-95.2428,0111,12.11,28.54,31.0000,23.0000
1983-07-25 13:00:00 UTC,2445541.041667,28.7317,-95.2428,0111,14.37,30.81,34.0000,25.0000